Marshfield, WI

5:51 AM CDT on May 29, 2017 (GMT -0500)
Marshfield Municipal

Weather History for KMFI - November, 2013

Change the Weather History Date:

Saturday, November 23, 2013

  Actual Average Record
Temperature  
Mean Temperature 12 °F -  
Max Temperature 19 °F 36 °F 57 °F (1931)
Min Temperature 5 °F 21 °F -8 °F (1950)
Degree Days  
Heating Degree Days 52    
Moisture  
Dew Point 1 °F    
Average Humidity 64    
Maximum Humidity 79    
Minimum Humidity 49    
Precipitation  
Precipitation 0.00 in - - ()
Sea Level Pressure  
Sea Level Pressure 30.67 in    
Wind  
Wind Speed 15 mph (NW)    
Max Wind Speed 22 mph    
Max Gust Speed 28 mph    
Visibility 10 miles    
Events Snow    
Averages and records for this station are not official NWS values.
T = Trace of Precipitation, MM = Missing Value Source: NWS Daily Summary

Daily Weather History Graph

Daily Weather History Graph

Search for Another Location

Airport or City:

Trip Planner

Search our weather history database for the weather conditions in past years. The results will help you decide how hot, cold, wet, or windy it might be!

Date:

Astronomy

Nov. 23, 2013 Rise Set
Actual Time 7:08 AM CST 4:25 PM CST
Civil Twilight 6:35 AM CST 4:58 PM CST
Nautical Twilight 6:00 AM CST 5:34 PM CST
Astronomical Twilight 5:25 AM CST 6:08 PM CST
Moon 10:00 PM CST (11/23) 11:20 AM CST (11/23)
Length of Visible Light 10h 22m
Length of Day
9h 17m
Waning Gibbous, 69% of the Moon is Illuminated
Nov 23
Waning Gibbous
Nov 25
Last Quarter
Dec 2
New
Dec 9
First Quarter
Dec 17
Full

Hourly Weather History & Observations

Time (CST) Temp. Windchill Dew Point Humidity Pressure Visibility Wind Dir Wind Speed Gust Speed Precip Events Conditions
12:54 AM 19.0 °F 3.6 °F 8.1 °F 62% 30.48 in 10.0 mi NNW 18.4 mph 27.6 mph 0.00 in   Overcast
1:54 AM 18.0 °F 2.2 °F 7.0 °F 62% 30.51 in 10.0 mi NNW 18.4 mph 26.5 mph 0.00 in   Overcast
2:54 AM 15.1 °F -2.0 °F 7.0 °F 70% 30.55 in 3.0 mi North 19.6 mph 25.3 mph 0.00 in Snow Light Snow
3:18 AM 12.2 °F -3.7 °F 6.8 °F 79% 30.49 in 5.0 mi NNW 15.0 mph 24.2 mph 0.00 in Snow Light Snow
3:54 AM 12.0 °F -4.5 °F -0.0 °F 59% 30.57 in 10.0 mi NNW 16.1 mph 24.2 mph 0.00 in   Clear
4:54 AM 10.0 °F -8.1 °F 1.0 °F 67% 30.60 in 10.0 mi NW 18.4 mph - N/A   Clear
5:54 AM 8.1 °F -9.0 °F 1.0 °F 73% 30.62 in 10.0 mi NW 15.0 mph - N/A   Clear
6:54 AM 8.1 °F -9.0 °F 1.0 °F 73% 30.64 in 10.0 mi NW 15.0 mph - N/A   Clear
7:54 AM 9.0 °F -7.3 °F 1.9 °F 73% 30.67 in 10.0 mi NW 13.8 mph - N/A   Clear
8:54 AM 10.9 °F -5.9 °F 1.9 °F 67% 30.70 in 10.0 mi NW 16.1 mph 25.3 mph N/A   Clear
9:54 AM 12.9 °F -2.8 °F 1.0 °F 59% 30.72 in 10.0 mi NNW 15.0 mph 24.2 mph N/A   Clear
10:54 AM 15.1 °F -2.9 °F 1.9 °F 56% 30.72 in 10.0 mi NNW 21.9 mph - N/A   Mostly Cloudy
11:54 AM 15.1 °F -1.1 °F 1.0 °F 54% 30.71 in 10.0 mi NNW 17.3 mph - N/A   Overcast
12:54 PM 15.1 °F -0.1 °F -0.0 °F 51% 30.72 in 10.0 mi North 15.0 mph 23.0 mph N/A   Scattered Clouds
1:54 PM 16.0 °F 1.1 °F 1.0 °F 52% 30.71 in 10.0 mi NW 15.0 mph - N/A   Partly Cloudy
2:54 PM 16.0 °F 1.7 °F -0.0 °F 49% 30.72 in 10.0 mi NW 13.8 mph - N/A   Clear
3:54 PM 14.0 °F 1.2 °F -2.0 °F 49% 30.74 in 10.0 mi NW 10.4 mph - N/A   Clear
4:54 PM 12.0 °F -0.4 °F -0.0 °F 59% 30.74 in 10.0 mi WNW 9.2 mph - N/A   Clear
5:54 PM 10.9 °F 0.2 °F -0.0 °F 61% 30.75 in 10.0 mi WNW 6.9 mph - N/A   Clear
6:54 PM 10.0 °F -0.9 °F -0.0 °F 64% 30.75 in 10.0 mi NW 6.9 mph - N/A   Clear
7:54 PM 8.1 °F -2.0 °F -0.9 °F 67% 30.75 in 10.0 mi WNW 5.8 mph - N/A   Clear
8:54 PM 7.0 °F -1.7 °F -0.0 °F 73% 30.73 in 10.0 mi WNW 4.6 mph - N/A   Clear
9:54 PM 7.0 °F -3.3 °F -0.9 °F 70% 30.73 in 10.0 mi West 5.8 mph - N/A   Clear
10:54 PM 6.1 °F -2.8 °F -0.9 °F 73% 30.73 in 10.0 mi West 4.6 mph - N/A   Clear
11:54 PM 5.0 °F -5.6 °F -0.9 °F 76% 30.72 in 10.0 mi West 5.8 mph - N/A   Clear